{"data":{"norad_id":65622,"epoch":"2026-09-20T08:17:51.555840Z","epoch_age_seconds":125197,"freshness":"FRESH","line1":"1 65622U 25210A   26263.34573560  .00022723  00000+0  68148-3 0  9998","line2":"2 65622  53.1599 122.2319 0001100  82.9036 277.2092 15.34406720 57547","mean_motion":15.3440672,"eccentricity":0.00011,"inclination_deg":53.1599,"raan_deg":122.2319,"arg_perigee_deg":82.9036,"mean_anomaly_deg":277.2092,"bstar":0.00068148,"rev_number":5754,"period_min":93.847347071056,"perigee_km":461.93077679445,"apogee_km":463.4357572532,"semimajor_km":6840.8202670238,"source":"CELESTRAK","updated_at":"2026-09-21T09:00:35.658218Z"}}